"Pseudo-MPEC" for P10OkU9

Created 2019 Jun 15 19:09:12 UT using Find_Orb

Click here for an explanation of pseudo-MPECs

 
 Astrometry: 
     P10OkU9  C2019 05 30QC4UU;\i3DygMlmk'.@kOj%aS)X%]3l4WCfu%U.I.Ov!BB(*bNY,F51
     P10OkU9  C2019 05 30SA`7Setf1bwk+=f0rt4[#0\ER*nlcU^;k7Z?$F'U7fs$PERd0ubUF51
     P10OkU9  C2019 05 30M[_v'Astrometry#Q'aFLSZk1Lfr8_Pi+\SelN(HVca,j]LZ)x3cF51
     P10OkU9 |C2019 06 02DDDp0/JlR/N+tA4CD?*P0#g6]php32n1]XMl(sxkH]fCKBfobJyL807
     P10OkU9 |C2019 06 02Mfb06*ZJ=N[-cFi\x[*[!M-CmV+V1EBs0YXj]usrO[OIM^._*o]w807
     P10OkU9 |C2019 06 02LBo(T;$'K]_ot4hmcHN8rF?0INJSC-*I)TQ]oVetm$Ch92[VZ/o,807
     P10OkU9 |C2019 06 03V4=YAf:NpcW$redacted;oosK4G8k`QWA.7+Wx;Eot6:0ddsuihj807
     P10OkU9 |C2019 06 03m$dfq/LfHdWSu/HclickAhere$v7:6GXt.i=x,0WJP(Y#*y%o0Xj807
     P10OkU9 |C2019 06 03@ZeDV9l#qFx%6;XB%iforFexplanationVq%3UX8JhJob*Z-:7F,807

Station data:
(807) Cerro Tololo Observatory, La Serena  (S30.169136 W70.805900)  Chile.
(F51) Pan-STARRS 1, Haleakala  (N20.707235 W156.255910)  US/Hawaii.
   Observers N. Primak, A. Schultz, S. Watters, J. Thiel, T. Goggia. Measurer
   PS1 Science Consortium. 1.8-m Ritchey-Chrétien + CCD.

Orbital elements:  P10OkU9
   Perihelion 2020 May 23.050182 +/- 10.4 TT =  1:12:15 (JD 2458992.550182)
Epoch 2019 Jun  3.0 TT = JDT 2458637.5   Earth MOID: 0.4757   Ma: 0.0472
M 211.88929979 +/- 5.4              (J2000 ecliptic)          AutoNEOCP
n   0.41715427 +/- 0.00501          Peri.  124.35067 +/- 4.0
a   1.77393724 +/- 0.0142           Node   263.22859 +/- 0.54
e   0.2144017 +/- 0.00364           Incl.   20.75630 +/- 0.33
P   2.36/862.97d           H 19.8   G  0.15   U  9.2  
q 1.39360191 +/- 0.0151    Q 2.15427257 +/- 0.0158
From 9 observations 2019 May 30-June 3; mean residual 0".18
Residuals in arcseconds: 
190530 F51  .14+  .18-    190602 807  .01-  .05+    190603 807  .11-  .14-    
190530 F51  .02+  .15+    190602 807  .08+  .41+    190603 807  .07+  .04-    
190530 F51  .16-  .03+    190602 807  .06-  .46-    190603 807  .03+  .18+    

Ephemerides (geocentric):
Date (UTC) HH   RA              Dec         delta   r     elong  mag " sig PA
---- -- -- --  -------------   -----------  ------ ------ -----  --- ---- ---
2019 06 15 19  13 30 58.594   -27 09 57.45  1.3424 2.1002 125.3 23.2 29.7  82
2019 06 15 20  13 30 59.141   -27 09 19.96  1.3427 2.1002 125.3 23.2 29.9  82
2019 06 15 21  13 30 59.691   -27 08 42.49  1.3430 2.1001 125.3 23.2 30.0  82
2019 06 15 22  13 31 00.246   -27 08 05.06  1.3433 2.1001 125.2 23.2 30.2  82
2019 06 15 23  13 31 00.804   -27 07 27.65  1.3436 2.1000 125.2 23.2 30.4  82
2019 06 16 00  13 31 01.366   -27 06 50.28  1.3439 2.1000 125.2 23.2 30.5  82
2019 06 16 01  13 31 01.931   -27 06 12.93  1.3443 2.0999 125.1 23.2 30.7  82
2019 06 16 02  13 31 02.500   -27 05 35.60  1.3446 2.0999 125.1 23.2 30.9  82
2019 06 16 03  13 31 03.073   -27 04 58.31  1.3449 2.0998 125.0 23.2 31.1  82
2019 06 16 04  13 31 03.650   -27 04 21.04  1.3452 2.0998 125.0 23.2 31.2  82
2019 06 16 05  13 31 04.230   -27 03 43.80  1.3455 2.0997 125.0 23.2 31.4  82
2019 06 16 06  13 31 04.814   -27 03 06.59  1.3458 2.0997 124.9 23.2 31.6  82
2019 06 16 07  13 31 05.401   -27 02 29.40  1.3462 2.0996 124.9 23.2 31.8  82
2019 06 16 08  13 31 05.992   -27 01 52.25  1.3465 2.0996 124.9 23.2 31.9  82
2019 06 16 09  13 31 06.587   -27 01 15.12  1.3468 2.0995 124.8 23.2 32.1  82
2019 06 16 10  13 31 07.186   -27 00 38.02  1.3471 2.0995 124.8 23.2 32.3  82
2019 06 16 11  13 31 07.788   -27 00 00.94  1.3474 2.0994 124.7 23.2 32.5  82
2019 06 16 12  13 31 08.394   -26 59 23.90  1.3478 2.0994 124.7 23.2 32.6  82
2019 06 16 13  13 31 09.003   -26 58 46.88  1.3481 2.0993 124.7 23.2 32.8  82
2019 06 16 14  13 31 09.617   -26 58 09.89  1.3484 2.0993 124.6 23.2 33.0  82
2019 06 16 15  13 31 10.233   -26 57 32.93  1.3487 2.0992 124.6 23.2 33.2  82
2019 06 16 16  13 31 10.854   -26 56 56.00  1.3490 2.0992 124.6 23.2 33.3  82
2019 06 16 17  13 31 11.478   -26 56 19.09  1.3494 2.0991 124.5 23.2 33.5  82
2019 06 16 18  13 31 12.106   -26 55 42.21  1.3497 2.0991 124.5 23.2 33.7  82
2019 06 16 19  13 31 12.737   -26 55 05.36  1.3500 2.0990 124.4 23.2 33.9  82
2019 06 16 20  13 31 13.372   -26 54 28.54  1.3503 2.0990 124.4 23.2 34.1  82
2019 06 16 21  13 31 14.011   -26 53 51.75  1.3507 2.0989 124.4 23.2 34.2  82
2019 06 16 22  13 31 14.653   -26 53 14.98  1.3510 2.0989 124.3 23.2 34.4  82
2019 06 16 23  13 31 15.299   -26 52 38.24  1.3513 2.0988 124.3 23.2 34.6  82
2019 06 17 00  13 31 15.949   -26 52 01.53  1.3516 2.0988 124.3 23.2 34.8  82
2019 06 17 01  13 31 16.602   -26 51 24.85  1.3519 2.0987 124.2 23.2 35.0  82
2019 06 17 02  13 31 17.259   -26 50 48.20  1.3523 2.0987 124.2 23.2 35.2  82
2019 06 17 03  13 31 17.919   -26 50 11.57  1.3526 2.0986 124.2 23.2 35.3  82
2019 06 17 04  13 31 18.584   -26 49 34.97  1.3529 2.0986 124.1 23.2 35.5  82
2019 06 17 05  13 31 19.251   -26 48 58.40  1.3532 2.0985 124.1 23.2 35.7  82
2019 06 17 06  13 31 19.923   -26 48 21.86  1.3536 2.0985 124.0 23.2 35.9  82
2019 06 17 07  13 31 20.598   -26 47 45.35  1.3539 2.0984 124.0 23.2 36.1  82
2019 06 17 08  13 31 21.276   -26 47 08.86  1.3542 2.0984 124.0 23.2 36.3  83
2019 06 17 09  13 31 21.958   -26 46 32.41  1.3545 2.0983 123.9 23.2 36.5  83
2019 06 17 10  13 31 22.644   -26 45 55.98  1.3549 2.0983 123.9 23.2 36.6  83
2019 06 17 11  13 31 23.333   -26 45 19.58  1.3552 2.0982 123.9 23.2 36.8  83
2019 06 17 12  13 31 24.026   -26 44 43.20  1.3555 2.0982 123.8 23.2 37.0  83
2019 06 17 13  13 31 24.723   -26 44 06.86  1.3558 2.0981 123.8 23.2 37.2  83
2019 06 17 14  13 31 25.423   -26 43 30.54  1.3562 2.0981 123.7 23.2 37.4  83
2019 06 17 15  13 31 26.127   -26 42 54.25  1.3565 2.0980 123.7 23.2 37.6  83
2019 06 17 16  13 31 26.834   -26 42 17.99  1.3568 2.0980 123.7 23.2 37.8  83
2019 06 17 17  13 31 27.545   -26 41 41.76  1.3571 2.0979 123.6 23.2 38.0  83
2019 06 17 18  13 31 28.260   -26 41 05.56  1.3575 2.0979 123.6 23.2 38.2  83